Content
SEND FEEDBACK

Daily
Averages
Monthly
Summary
Greece

IOANNINA, GREECE


Home > Europe > Greece
Elevation: 1588 feet     Latitude: 39 40N     Longitude: 020 51E

WEATHER
 
SELECT A DAY
Number of Records: 283,959;   Date Range: 7/1/96 - 9/21/14
 
SHARE

PRINT THIS DATA

[ ← Previous Day ]
WEATHER ALMANAC - JANUARY 6, 2013
[ Next Day → ]
[ °C ]   °F
Weather ElementAverageHighLow
Temperature51.7 °F57.2 °F (3:20 pm)44.6 °F (10:50 pm)
Dewpoint43 °F46.4 °F (4:50 pm)37.4 °F (9:50 pm)
Humidity71.8 %87 % (12:50 am)55 % (2:00 pm)
Barometer29.89 in29.96 in (8:00 pm)29.80 in (2:50 am)
Wind Speed11.6 mph18.4 mph (7:50 am)
Weather ElementAverage
Visibility6.5 mi
Wind DirectionWNW (294.1 °)

Weather ElementTotal
Precipitation---
Heating Degree Days14.1 (Base 65)
Growing Degree Days0.9 (Base 50)
Averaged from 51 records on January 6, 2013
WEATHER CONDITIONS BREAKOUT
WIND DIRECTION BREAKOUT
WEATHER BY HOUR - JANUARY 6, 2013
[ °C ]   °F
Local TimeTemperatureDewpointHumidityBarometerVisibilityWind DirectionWind SpeedGust SpeedPrecipitationEventsConditions
12:50 AM48.2 °F44.6 °F87 %29.83 in6.2 miSouth (190°)4.6 mphScattered Clouds
1:20 AM48.2 °F44.6 °F87 %29.83 in6.2 miSSW (200°)4.6 mphScattered Clouds
1:50 AM50.0 °F44.6 °F82 %29.83 in6.2 miNNW (330°)10.4 mphScattered Clouds
2:00 AM50.0 °F45.0 °F76 %29.83 in6.0 miNNW (330°)10.4 mphPartly Cloudy
2:20 AM50.0 °F44.6 °F82 %29.83 in6.2 miNNW (330°)12.7 mphScattered Clouds
2:50 AM50.0 °F44.6 °F82 %29.80 in6.2 miNW (320°)13.8 mphScattered Clouds
3:20 AM50.0 °F44.6 °F82 %29.80 in6.2 miNNW (330°)12.7 mphScattered Clouds
3:50 AM50.0 °F42.8 °F76 %29.80 in6.2 miNNW (330°)10.4 mphScattered Clouds
4:20 AM50.0 °F42.8 °F76 %29.80 in6.2 miNNW (330°)10.4 mphScattered Clouds
4:50 AM51.8 °F42.8 °F71 %29.80 in6.2 miNW (320°)12.7 mphPartly Cloudy
5:20 AM51.8 °F42.8 °F71 %29.80 in6.2 miNW (310°)12.7 mphPartly Cloudy
5:50 AM53.6 °F44.6 °F72 %29.80 in6.2 miNNW (330°)13.8 mphPartly Cloudy
6:20 AM53.6 °F44.6 °F72 %29.80 in6.2 miNW (320°)10.4 mphPartly Cloudy
6:50 AM53.6 °F42.8 °F67 %29.83 in6.2 miNorth (350°)10.4 mphPartly Cloudy
7:20 AM53.6 °F42.8 °F67 %29.83 in6.2 miNNE (20°)10.4 mphPartly Cloudy
7:50 AM51.8 °F41.0 °F67 %29.86 in6.2 miNorth (350°)18.4 mphPartly Cloudy
8:00 AM52.0 °F41.0 °F56 %29.86 in12.0 miNorth (350°)18.4 mphScattered Clouds
8:20 AM51.8 °F41.0 °F67 %29.86 in6.2 miNNW (340°)17.3 mphPartly Cloudy
8:50 AM50.0 °F39.2 °F66 %29.89 in6.2 miNNW (340°)15.0 mphPartly Cloudy
9:20 AM50.0 °F39.2 °F66 %29.89 in6.2 miNNW (340°)15.0 mphPartly Cloudy
9:50 AM53.6 °F42.8 °F67 %29.92 in6.2 miNNW (340°)15.0 mphPartly Cloudy
10:20 AM53.6 °F42.8 °F67 %29.92 in6.2 miNNW (330°)13.8 mphPartly Cloudy
10:50 AM55.4 °F42.8 °F63 %29.92 in6.2 miNorth (350°)10.4 mphPartly Cloudy
11:20 AM55.4 °F42.8 °F63 %29.95 in6.2 miNNW (330°)10.4 mphPartly Cloudy
11:50 AM53.6 °F44.6 °F72 %29.95 in6.2 miNorth (10°)12.7 mphPartly Cloudy
12:20 PM53.6 °F44.6 °F72 %29.95 in6.2 miNNW (340°)15.0 mphPartly Cloudy
12:50 PM55.4 °F44.6 °F67 %29.92 in6.2 miNNW (330°)11.5 mphPartly Cloudy
1:20 PM55.4 °F44.6 °F67 %29.92 in6.2 miNNW (340°)13.8 mphPartly Cloudy
1:50 PM55.4 °F44.6 °F67 %29.92 in6.2 miNW (310°)13.8 mphPartly Cloudy
2:00 PM56.0 °F44.0 °F55 %29.93 in12.0 miNW (310°)13.8 mphScattered Clouds
2:20 PM55.4 °F44.6 °F67 %29.92 in6.2 miNorth (360°)17.3 mphPartly Cloudy
2:50 PM55.4 °F44.6 °F67 %29.92 in6.2 miNorth (360°)17.3 mphPartly Cloudy
3:20 PM57.2 °F42.8 °F59 %29.92 in6.2 miNorth (350°)15.0 mphPartly Cloudy
3:50 PM55.4 °F44.6 °F67 %29.92 in6.2 miNNW (340°)16.1 mphPartly Cloudy
4:20 PM55.4 °F44.6 °F67 %29.92 in6.2 miNorth (350°)16.1 mphPartly Cloudy
4:50 PM53.6 °F46.4 °F77 %29.92 in6.2 miWNW (300°)8.1 mphPartly Cloudy
5:20 PM53.6 °F46.4 °F77 %29.92 in6.2 miWNW (300°)8.1 mphPartly Cloudy
5:50 PM51.8 °F46.4 °F82 %29.92 in6.2 miWest (270°)9.2 mphPartly Cloudy
6:20 PM51.8 °F46.4 °F82 %29.92 in6.2 miWNW (300°)9.2 mphPartly Cloudy
6:50 PM50.0 °F44.6 °F82 %29.95 in6.2 miNW (310°)6.9 mphPartly Cloudy
7:20 PM50.0 °F44.6 °F82 %29.95 in6.2 miNW (320°)11.5 mphPartly Cloudy
7:50 PM50.0 °F41.0 °F71 %29.95 in6.2 miNW (320°)11.5 mphPartly Cloudy
8:00 PM50.0 °F42.0 °F65 %29.96 in6.0 miNW (320°)11.5 mphScattered Clouds
8:20 PM50.0 °F41.0 °F71 %29.95 in6.2 miNNW (330°)16.1 mphPartly Cloudy
8:50 PM50.0 °F41.0 °F71 %29.95 inWNW (300°)9.2 mphClear
9:20 PM50.0 °F41.0 °F71 %29.95 inSouth (190°)5.8 mphClear
9:50 PM46.4 °F37.4 °F71 %29.95 inWest (270°)9.2 mphClear
10:20 PM46.4 °F37.4 °F71 %29.95 inWNW (290°)6.9 mphClear
10:50 PM44.6 °F39.2 °F81 %29.95 inCalmClear
11:20 PM46.4 °F39.2 °F76 %29.95 inENE (60°)9.2 mphClear
11:50 PM46.4 °F37.4 °F71 %29.95 inNW (310°)4.6 mphClear
Hourly data recorded from LGIO, located miles away from Ioannina, Greece







STORIES FROM OUR PARTNERS